This is the latest recevied weather packets stored in our database for station/object OE5RBO. If no packets are shown the sender has not sent any weather packets the latest 10 day(s).
| Time | Temp. | Humidity | Pressure | Rain* | Wind** | Luminosity | Snow |
|---|---|---|---|---|---|---|---|
| 1777823828 | 26.67° C | 33% | 1010.4 hPa | 0 mm | - | - | - |
| 1777822027 | 27.22° C | 35% | 1010.4 hPa | 0 mm | - | - | - |
| 1777820226 | 27.22° C | 33% | 1010.8 hPa | 0 mm | - | - | - |
| 1777819026 | 27.78° C | 34% | 1011 hPa | 0 mm | - | - | - |
| 1777817825 | 27.78° C | 33% | 1011.1 hPa | 0 mm | - | - | - |
| 1777817224 | 28.89° C | 33% | 1011.1 hPa | 0 mm | - | - | - |
| 1777816624 | 29.44° C | 32% | 1011.2 hPa | 0 mm | - | - | - |
| 1777816024 | 29.44° C | 28% | 1011.3 hPa | 0 mm | - | - | - |
| 1777814823 | 29.44° C | 29% | 1011.6 hPa | 0 mm | - | - | - |
| 1777814223 | 29.44° C | 30% | 1011.8 hPa | 0 mm | - | - | - |
| 1777812422 | 28.33° C | 34% | 1012 hPa | 0 mm | - | - | - |
| 1777811821 | 28.33° C | 36% | 1012.2 hPa | 0 mm | - | - | - |
| 1777811221 | 28.33° C | 36% | 1012.5 hPa | 0 mm | - | - | - |
| 1777810620 | 27.78° C | 41% | 1012.7 hPa | 0 mm | - | - | - |
| 1777810020 | 28.89° C | 40% | 1012.8 hPa | 0 mm | - | - | - |
| 1777809420 | 27.78° C | 43% | 1012.9 hPa | 0 mm | - | - | - |
| 1777808819 | 27.78° C | 42% | 1013 hPa | 0 mm | - | - | - |
| 1777808219 | 27.78° C | 43% | 1013.3 hPa | 0 mm | - | - | - |
| 1777807619 | 26.67° C | 44% | 1013.4 hPa | 0 mm | - | - | - |
| 1777807018 | 27.22° C | 43% | 1013.5 hPa | 0 mm | - | - | - |
| 1777806418 | 27.22° C | 43% | 1013.6 hPa | 0 mm | - | - | - |
| 1777805818 | 26.67° C | 43% | 1013.8 hPa | 0 mm | - | - | - |
| 1777804617 | 26.67° C | 40% | 1014 hPa | 0 mm | - | - | - |
| 1777803416 | 26.11° C | 38% | 1014.4 hPa | 0 mm | - | - | - |
| 1777802816 | 26.67° C | 37% | 1014.5 hPa | 0 mm | - | - | - |
* Rain since midnight (hover to see other rain measurements)
** Current wind speed in m/s (hover to see current wind gust speed)